Tracking 17142 objects as of 27-May-2015
HD Live streaming from Space Station

NAVSTAR 19 (USA 54)

Track NAVSTAR 19 (USA 54) now!
NAVSTAR 19 (USA 54) is classified as:


NORAD ID: 20533
Int'l Code: 1990-025A
Perigee: 20,953.4 km
Apogee: 21,176.8 km
Inclination: 55.4 °
Period: 753.8 minutes
Semi major axis: 27436 km
RCS: 0.6015 m2 (medium)
Launch date: March 26, 1990
Source: United States (US)
PRN:
Your satellite tracking list
Your tracking list is empty





NASA's NSSDC Master Catalog

Two Line Element Set (TLE):
1 20533U 90025A   15147.24639259 -.00000094  00000-0  00000+0 0  9990
2 20533 055.3826 032.9575 0040716 140.4280 103.4391 01.91038207177920

Source of the keplerian elements: AFSPC

N2YO: 318